Location: Izdebno
(52.6670°N, 16.2170°E)
Time: 06:51:23
(UTC+02:00)

Vanguard 1 - Pass Details

Date: 03 March 2024
Orbit: 653 x 3825 km, 34.2° (Epoch: 22 April)

Event Time Altitude Azimuth Distance (km) Brightness Sun altitude
Rises 22:46:00 0° 267° (W) 6,035 14.3 -40.8°
Reaches altitude 10° 22:50:08 10° 258° (WSW) 5,436 13.9 -41.1°
Enters shadow 23:00:47 30° 220° (SW) 4,808 13.2 -41.8°
